FW5345 Weather Reports


time (UTC)temp
C
wind
direction
speed
KPH
gust
KPH
rain 1hr
cm
rain 24hr
cm
rain mn
cm
humidity
%
barometer
mb
20260508151609 12 5 12.9 25.7 0.00 0.00 0.00 64 1018.5
20260508150031 12 353 12.9 25.7 0.00 0.00 0.00 62 1018.4
20260508144535 12 342 16.1 25.7 0.00 0.00 0.00 60 1018.2
20260508143035 12 342 14.5 22.5 0.00 0.00 0.00 60 1018.0
20260508141644 12 336 12.9 22.5 0.00 0.00 0.00 61 1017.8
20260508140037 12 321 9.7 25.7 0.00 0.00 0.00 60 1017.7
20260508134643 12 312 9.7 19.3 0.00 0.00 0.00 61 1017.7
20260508133035 12 316 11.3 20.9 0.00 0.00 0.00 62 1017.5
20260508131535 12 309 9.7 22.5 0.00 0.00 0.00 63 1017.5
20260508130037 9 330 8.0 12.9 0.00 0.00 0.00 71 1017.1
20260508124537 7 110 1.6 8.0 0.00 0.00 0.00 72 1017.1
20260508123033 7 150 3.2 8.0 0.00 0.00 0.00 70 1017.1
20260508121534 7 130 1.6 6.4 0.00 0.00 0.00 68 1017.0
20260508120036 7 153 4.8 9.7 0.00 0.00 0.00 67 1016.9
20260508111532 6 142 3.2 6.4 0.00 0.00 0.00 61 1016.6
20260508104535 7 129 3.2 6.4 0.00 0.00 0.00 60 1016.6
20260508103036 6 120 4.8 14.5 0.00 0.00 0.00 62 1016.6
20260508100033 6 128 6.4 12.9 0.00 0.00 0.00 62 1016.6
20260508094610 7 133 6.4 11.3 0.00 0.00 0.00 62 1016.6
20260508093031 6 138 8.0 12.9 0.00 0.00 0.00 64 1016.5
20260508090043 6 134 4.8 8.0 0.00 0.00 0.00 65 1016.5
20260508090036 6 142 6.4 11.3 0.00 0.00 0.00 66 1016.5
20260508081530 6 155 4.8 8.0 0.00 0.00 0.00 65 1016.6
20260508080032 7 168 4.8 6.4 0.00 0.00 0.00 63 1016.6
20260508074537 7 159 4.8 8.0 0.00 0.00 0.00 61 1016.7
20260508071533 7 154 6.4 14.5 0.00 0.00 0.00 62 1016.8
20260508070035 7 149 6.4 9.7 0.00 0.00 0.00 61 1016.8
20260508064609 8 155 6.4 11.3 0.00 0.00 0.00 59 1016.9
20260508063035 8 165 4.8 9.7 0.00 0.00 0.00 59 1016.9
20260508061610 8 149 8.0 12.9 0.00 0.00 0.00 57 1017.0
20260508060035 8 162 6.4 11.3 0.00 0.00 0.00 55 1017.1
20260508054537 9 157 3.2 8.0 0.00 0.00 0.00 51 1017.1
20260508053035 10 152 1.6 9.7 0.00 0.00 0.00 49 1017.1
20260508051534 11 140 3.2 9.7 0.00 0.00 0.00 45 1017.1
20260508050034 12 191 3.2 11.3 0.00 0.00 0.00 42 1017.1
20260508044532 12 294 3.2 9.7 0.00 0.00 0.00 40 1017.1
20260508041535 15 325 11.3 20.9 0.00 0.00 0.00 32 1016.7
20260508040036 16 318 12.9 25.7 0.00 0.00 0.00 28 1016.6
20260508034642 16 306 14.5 24.1 0.00 0.00 0.00 30 1016.4
20260508033111 16 316 12.9 25.7 0.00 0.00 0.00 34 1016.1
20260508030030 16 320 9.7 20.9 0.00 0.00 0.00 35 1016.3
20260508024530 17 316 9.7 25.7 0.00 0.00 0.00 34 1016.3
20260508021647 18 318 9.7 12.9 0.00 0.00 0.00 36 1016.0
20260508020034 19 314 11.3 20.9 0.00 0.00 0.00 33 1016.0
20260508011642 20 312 9.7 27.4 0.00 0.00 0.00 30 1016.2
20260508010035 20 310 11.3 19.3 0.00 0.00 0.00 29 1016.2
20260508004529 20 307 11.3 22.5 0.00 0.00 0.00 29 1016.2
20260508003108 21 311 14.5 25.7 0.00 0.00 0.00 29 1016.1
20260508001536 21 299 11.3 29.0 0.00 0.00 0.00 27 1016.1
20260508000038 21 305 12.9 27.4 0.00 0.00 0.00 25 1016.1
20260507234609 21 301 12.9 29.0 0.00 0.00 0.00 25 1016.0
20260507231607 21 310 14.5 32.2 0.00 0.00 0.00 25 1016.2
20260507230035 21 306 14.5 32.2 0.00 0.00 0.00 25 1016.3
20260507224534 21 309 12.9 25.7 0.00 0.00 0.00 24 1016.4
20260507223031 21 305 12.9 25.7 0.00 0.00 0.00 25 1016.5
20260507220038 21 308 11.3 27.4 0.00 0.00 0.00 28 1017.0
20260507214641 21 322 11.3 20.9 0.00 0.00 0.00 29 1017.0
20260507213030 21 331 12.9 29.0 0.00 0.00 0.00 31 1017.1
20260507211537 20 338 14.5 22.5 0.00 0.00 0.00 31 1017.1
20260507210142 20 330 12.9 29.0 0.00 0.00 0.00 32 1017.3
20260507203107 20 327 12.9 24.1 0.00 0.00 0.00 34 1017.4
20260507200153 20 311 14.5 27.4 0.00 0.00 0.00 34 1017.7
20260507193110 20 305 12.9 24.1 0.00 0.00 0.00 33 1017.9
20260507190034 18 318 11.3 24.1 0.00 0.00 0.00 35 1018.0
20260507184535 18 314 12.9 25.7 0.00 0.00 0.00 36 1018.1
20260507183037 18 320 11.3 20.9 0.00 0.00 0.00 38 1018.2
20260507181536 17 305 12.9 20.9 0.00 0.00 0.00 40 1018.4
20260507174652 16 310 12.9 25.7 0.00 0.00 0.00 46 1018.7
20260507171538 15 337 11.3 22.5 0.00 0.00 0.00 52 1018.9
20260507170033 15 346 9.7 17.7 0.00 0.00 0.00 55 1018.8
20260507164535 14 357 11.3 20.9 0.00 0.00 0.00 56 1018.8
20260507163037 14 7 12.9 22.5 0.00 0.00 0.00 58 1018.8
20260507161539 14 360 9.7 19.3 0.00 0.00 0.00 58 1018.8
20260507160032 13 12 9.7 20.9 0.00 0.00 0.00 59 1018.8
20260507154534 13 20 12.9 20.9 0.00 0.00 0.00 60 1018.9